ETHL

Details ICAO ETHL
Name LAUPHEIM
Region Germany - Military
Timezone Europe/Berlin (UTC+2.0)
Plans Departing 4
Arriving 8
Stats Elevation 1,766 ft / 538 m (AMSL)
Location 48.221916° 9.908069°
Runways 2
Magnetic Variation 2.747° E
Sunrise 2018-05-22 03:34:22 UTC / 2018-05-22 05:34:22 Local
Sunset 2018-05-22 19:02:33 UTC / 2018-05-22 21:02:33 Local
Advertisement - Login to hide

Runways

ID Width Length Bearing (true) Bearing (mag) Surface Threshold Offset Overrun Length
03 164 ft / 50 m 1,998 ft / 609 m 33.04° 30.29° Grass 0 ft / 0 m 0 ft / 0 m
09 98 ft / 30 m 5,385 ft / 1,642 m 92.86° 90.11° Asphalt 0 ft / 0 m 0 ft / 0 m
21 164 ft / 50 m 1,998 ft / 609 m 213.04° 210.29° Grass 0 ft / 0 m 0 ft / 0 m
27 98 ft / 30 m 5,385 ft / 1,642 m 272.88° 270.13° Asphalt 0 ft / 0 m 0 ft / 0 m

Map

Weather


0- 5 10 15 20 25 30 35+ Temperature / ° C

Clouds and Precipitation
Forecast for 2018-05-22 18:00 UTC. Updated an hour ago

Ground ~20,000 ft ~40,000 ft Winds

METAR

ETHL 221720Z 28009KT 9999 VCTS FEW025 SCT050CB BKN120 15/12 Q1013 RESHRA BLU

TAF

Not found

Frequencies

Tower 122.10 MHz LIMA TWR
Approach 123.30 MHz LIMA RADAR
Approach 119.10 MHz LIMA RADAR
Warning: Do not use this data for real-world aviation or navigation. No guarantee of current accuracy is given.